sat.trackr.live / text

‹ back to catalog

STARLINK-37216

NORAD 68391 · 2026-063M

PAYLOAD ACTIVE UNKNOWN

§ Identity

Operator
Country
US
Launch date
2026-03-26
Launch site
AFWTR
Launch vehicle
Mass (kg)
RCS (m²)

Purposes: comms

External: N2YO · Heavens-Above · Gunter

§ Orbital elements

Epoch: 2026-05-24T23:22:44.061312Z

Period
93.91 min
Inclination
97.2851°
Eccentricity
0.0001496
Mean motion
15.33451296 rev/d
Perigee alt
464.5 km
Apogee alt
466.5 km
Semi-major
6,843.7 km
B*
5.8549e-4
RAAN
287.5048°
Arg perigee
83.9092°
Mean anomaly
276.2321°
Rev number
958

§ Raw data

STARLINK-372161 68391U 26063M   26144.97412108  .00018878  00000+0  58549-3 0  99982 68391  97.2851 287.5048 0001496  83.9092 276.2321 15.33451296  9580

JSON: /api/v1/satellites/68391 · /tle

For live sub-satellite position, see the globe view (requires WebGL).

§ Visibility from observer

Set your observer location to see the next 7 days of passes ≥ 10°. The values pass through the URL so the page stays shareable.

No JS? Fill the form by hand. The geolocation button needs JavaScript.